Weather History for Dillon, MT

Change the Weather History Date:

Thursday, May 23, 2013

  Actual Average Record
Temperature  
Mean Temperature 43 °F 52 °F  
Max Temperature 51 °F 66 °F 87 °F (1992)
Min Temperature 35 °F 39 °F 23 °F (1986)
Degree Days  
Heating Degree Days 22    
Month to date heating degree days 273  
Since 1 July heating degree days 7368  
Cooling Degree Days 0    
Month to date cooling degree days 3  
Year to date cooling degree days 3  
Moisture  
Dew Point 36 °F    
Average Humidity 74    
Maximum Humidity 92    
Minimum Humidity 56    
Precipitation  
Precipitation 0.32 in 0.07 in 0.77 in (1970)
Month to date precipitation 1.64 1.31  
Year to date precipitation 2.18 3.43  
Snow  
Snow 0.00 in - - ()
Snow Depth 0.00 in    
Sea Level Pressure  
Sea Level Pressure 29.88 in    
Wind  
Wind Speed 7 mph (NNW)    
Max Wind Speed 21 mph    
Max Gust Speed 25 mph    
Visibility 9 miles    
Events Rain , Thunderstorm    
T = Trace of Precipitation, MM = Missing Value Source: NWS Daily Summary

Daily Weather History Graph

Daily Weather History Graph

Search for Another Location

Airport:

Trip Planner

Search our weather history database for the weather conditions in past years. The results will help you decide how hot, cold, wet, or windy it might be!

Date:

Astronomy

May. 23, 2013 Rise Set
Actual Time 5:52 AM MDT 9:02 PM MDT
Civil Twilight 5:16 AM MDT 9:38 PM MDT
Nautical Twilight 4:30 AM MDT 10:24 PM MDT
Astronomical Twilight 3:34 AM MDT 11:21 PM MDT
Moon 7:36 PM MDT (5/23) 4:44 AM MDT (5/23)
Length of Visible Light 16h 21m
Length of Day
15h 10m
Waxing Gibbous, 97% of the Moon is Illuminated
May 23
Waxing Gibbous
May 24
Full
May 31
Last Quarter
Jun 8
New
Jun 16
First Quarter

Hourly Weather History & Observations

Time (MDT) Temp. Windchill Dew Point Humidity Pressure Visibility Wind Dir Wind Speed Gust Speed Precip Events Conditions
12:03 AM 35.6 °F 27.1 °F 33.8 °F 93% 29.90 in 7.0 mi South 12.7 mph - 0.00 in Rain Light Rain
12:53 AM 35.1 °F 27.4 °F 33.1 °F 92% 29.83 in 7.0 mi SSW 10.4 mph - 0.03 in Rain Light Rain
1:53 AM 36.0 °F 29.6 °F 34.0 °F 93% 29.84 in 9.0 mi South 8.1 mph - 0.05 in Rain Light Rain
2:31 AM 37.4 °F 30.3 °F 33.8 °F 87% 29.89 in 8.0 mi SSE 10.4 mph - 0.02 in Rain Light Rain
2:53 AM 37.0 °F 30.4 °F 35.1 °F 93% 29.81 in 10.0 mi SSE 9.2 mph - 0.02 in   Overcast
3:43 AM 37.4 °F 32.1 °F 35.6 °F 93% 29.90 in 5.0 mi SSW 6.9 mph - 0.02 in Rain Light Rain
3:51 AM 37.4 °F 32.1 °F 35.6 °F 93% 29.90 in 5.0 mi SW 6.9 mph - 0.03 in Rain Light Rain
3:53 AM 37.9 °F 31.5 °F 35.1 °F 89% 29.82 in 5.0 mi SSW 9.2 mph - 0.03 in Rain Light Rain
4:18 AM 37.4 °F 32.8 °F 35.6 °F 93% 29.90 in 9.0 mi South 5.8 mph - 0.01 in Rain Light Rain
4:53 AM 37.0 °F 31.6 °F 35.1 °F 93% 29.83 in 9.0 mi SSE 6.9 mph - 0.01 in Rain Light Rain
5:53 AM 37.9 °F 34.4 °F 35.1 °F 89% 29.83 in 10.0 mi SW 4.6 mph - 0.01 in Rain Light Rain
6:53 AM 37.9 °F - 35.1 °F 89% 29.84 in 10.0 mi Calm Calm - 0.00 in   Overcast
7:29 AM 37.4 °F 32.8 °F 35.6 °F 93% 29.90 in 10.0 mi North 5.8 mph - N/A   Overcast
7:53 AM 37.0 °F 30.4 °F 35.1 °F 93% 29.85 in 10.0 mi NNW 9.2 mph - N/A   Overcast
8:21 AM 37.4 °F 30.8 °F 35.6 °F 93% 29.90 in 10.0 mi NNW 9.2 mph - N/A   Overcast
8:53 AM 37.9 °F 32.7 °F 36.0 °F 93% 29.88 in 10.0 mi NNW 6.9 mph - N/A   Overcast
9:53 AM 39.0 °F - 35.1 °F 86% 29.90 in 10.0 mi Calm Calm - N/A   Overcast
10:00 AM 39.2 °F 37.0 °F 35.6 °F 87% 29.91 in 10.0 mi NNW 3.5 mph - N/A   Overcast
10:53 AM 41.0 °F 39.0 °F 36.0 °F 82% 29.90 in 10.0 mi North 3.5 mph - N/A   Overcast
11:53 AM 43.0 °F - 36.0 °F 76% 29.89 in 10.0 mi Calm Calm - N/A   Overcast
12:25 PM 44.6 °F - 35.6 °F 71% 29.90 in 10.0 mi Calm Calm - N/A   Overcast
12:53 PM 45.0 °F - 37.0 °F 74% 29.89 in 10.0 mi Calm Calm - N/A   Overcast
1:53 PM 46.9 °F - 35.1 °F 63% 29.86 in 10.0 mi NE 5.8 mph - N/A   Overcast
2:43 PM 48.2 °F - 35.6 °F 62% 29.87 in 10.0 mi ENE 4.6 mph - N/A   Overcast
2:53 PM 50.0 °F - 36.0 °F 59% 29.83 in 10.0 mi NNE 6.9 mph - N/A   Overcast
3:53 PM 48.9 °F - 36.0 °F 61% 29.82 in 10.0 mi NE 4.6 mph - N/A   Overcast
4:35 PM 46.4 °F 42.9 °F 37.4 °F 71% 29.86 in 2.5 mi North 6.9 mph - 0.05 in Rain Rain
4:49 PM 44.6 °F 40.2 °F 39.2 °F 81% 29.86 in 5.0 mi NNW 8.1 mph - 0.06 in Rain Light Rain
4:53 PM 45.0 °F 40.1 °F 39.9 °F 82% 29.85 in 8.0 mi NNW 9.2 mph - 0.06 in Rain Light Rain
5:43 PM 44.6 °F 39.2 °F 39.2 °F 81% 29.85 in 10.0 mi NW 10.4 mph - 0.01 in   Overcast
5:53 PM 44.1 °F 40.1 °F 39.0 °F 82% 29.84 in 10.0 mi NW 6.9 mph - 0.01 in   Overcast
6:03 PM 44.6 °F 39.7 °F 39.2 °F 81% 29.86 in 10.0 mi NW 9.2 mph - N/A   Overcast
6:53 PM 41.0 °F 32.5 °F 37.0 °F 86% 29.87 in 10.0 mi NNW 17.3 mph - 0.00 in   Overcast
7:30 PM 39.2 °F 32.0 °F 37.4 °F 93% 29.88 in 10.0 mi NNW 11.5 mph - 0.01 in Rain Light Rain
7:42 PM 39.2 °F 32.5 °F 35.6 °F 87% 29.89 in 7.0 mi NNW 10.4 mph - 0.01 in Rain Light Rain
7:53 PM 39.0 °F 30.6 °F 36.0 °F 89% 29.90 in 7.0 mi NNW 15.0 mph - 0.02 in Rain Light Rain
8:05 PM 37.4 °F 30.8 °F 35.6 °F 93% 29.91 in 10.0 mi WNW 9.2 mph - 0.00 in Rain , Thunderstorm Light Rain
8:36 PM 37.4 °F 33.8 °F 35.6 °F 93% 29.94 in 8.0 mi Variable 4.6 mph - 0.10 in Rain , Thunderstorm Light Rain
8:46 PM 37.4 °F 31.4 °F 35.6 °F 93% 29.93 in 9.0 mi NNW 8.1 mph - 0.11 in Rain Light Rain
8:53 PM 37.9 °F 29.6 °F 35.1 °F 89% 29.94 in 9.0 mi NNW 13.8 mph - 0.11 in Rain Light Rain
9:53 PM 39.9 °F 31.1 °F 36.0 °F 86% 29.91 in 10.0 mi NE 17.3 mph 21.9 mph 0.01 in   Overcast
10:05 PM 39.2 °F 32.5 °F 35.6 °F 87% 29.95 in 10.0 mi SE 10.4 mph - 0.00 in   Overcast
10:18 PM 39.2 °F 34.2 °F 35.6 °F 87% 29.93 in 10.0 mi East 6.9 mph - 0.00 in   Overcast
10:31 PM 39.2 °F 33.6 °F 35.6 °F 87% 29.93 in 10.0 mi ESE 8.1 mph - 0.00 in   Overcast
10:53 PM 39.0 °F 35.7 °F 35.1 °F 86% 29.93 in 10.0 mi East 4.6 mph - 0.00 in   Overcast
11:33 PM 39.2 °F 35.0 °F 33.8 °F 81% 29.94 in 10.0 mi North 5.8 mph - N/A   Overcast
11:53 PM 39.0 °F 34.8 °F 36.0 °F 89% 29.92 in 10.0 mi NNW 5.8 mph - N/A   Overcast